Regional Weather Roundup
Issued by NWS Wakefield, VA

Home | Current Version | Previous Version | Text Only | Print | Product List | Glossary On
Versions: 1 2 3 4 5 6 7 8 9 10 11 12 13 14 15 16 17 18 19 20 21 22 23 24 25 26 27 28 29 30 31 32 33 34 35 36 37 38 39 40 41 42 43 44 45 46 47 48 49 50
000
ASUS41 KAKQ 211810
RWRAKQ

REGIONAL WEATHER ROUNDUP
NATIONAL WEATHER SERVICE WAKEFIELD VA
100 PM EST SUN DEC 21 2014

Note: "fair" indicates few or no clouds below 12,000 feet with no
significant weather and/or obstructions to visibility. * = Denotes
station may not report precipitation (e.g., rain,snow,etc.),
thunder or fog.

VAZ042-051-052>054-056-211900-
NORTHERN VIRGINIA

CITY           SKY/WX    TMP DP  RH WIND       PRES   REMARKS
WASH NATIONAL  PTSUNNY   44  24  45 NE6       30.33F
DULLES         CLOUDY    37  23  56 NW3       30.32F
FORT BELVOIR   SUNNY     42  24  47 VRB1      30.33F
QUANTICO       PTSUNNY   41  25  53 E3        30.34F
FREDERICKSBRG* CLOUDY    42  28  56 N3        30.31F
STAFFORD*      SUNNY     42  25  51 CALM      30.35F
WARRENTON      SUNNY     42  32  65 CALM      30.30F
CULPEPER*      SUNNY     43  27  52 CALM      30.31F
MANASSAS*      MOSUNNY   41  27  56 NW3       30.32
LEESBURG*      CLOUDY    37  28  70 NW3       30.32F
WINCHESTER     SUNNY     39  21  48 CALM      30.29F
FRONT ROYAL*   PTCLDY    37  27  65 N3        30.28F
LURAY*         CLEAR     43  30  61 CALM      30.26F
$$

VAZ048-049-060>072-079>083-211900-
CENTRAL AND SOUTH CENTRAL VIRGINIA

CITY           SKY/WX    TMP DP  RH WIND       PRES   REMARKS
RICHMOND       PTSUNNY   45  25  45 VRB5      30.31F
CHESTERFIELD*  CLOUDY    43  19  39 N3        30.32F
PETERSBURG*    CLOUDY    44  27  51 E3        30.31F
HANOVER        CLOUDY    41  25  53 VRB3      30.33F
TAPPAHANNOCK*  MOSUNNY   42  23  46 N3        30.32F
QUINTON*       CLOUDY    41  28  58 NE6       30.31F
CHARLOTTSVILLE SUNNY     41  26  55 CALM      30.29F
GORDONSVILLE*  CLEAR     40  27  58 CALM      30.29F
ORANGE*        MOSUNNY   41  28  60 CALM      30.31F
LOUISA*        SUNNY     43  27  52 E3        30.29F
BUMPASS*       CLOUDY    40  26  58 E3        30.30F
FARMVILLE*     MOSUNNY   53  31  42 E6        30.27F
CREWE*         CLOUDY    43  27  53 CALM      30.29F
FORT PICKETT*  MOCLDY    44  28  53 SE3       30.29F
CHASE CITY*    CLOUDY    45  33  62 CALM      30.28F
CLARKSVILLE*   CLOUDY    43  32  65 CALM      30.27F
SOUTH HILL*    CLOUDY    42  29  61 CALM      30.34F
LAWRENCEVILLE* CLOUDY    42  29  59 CALM      30.29F
EMPORIA*       CLOUDY    43  28  56 NE3       30.32F
$$

VAZ088>098-211900-
SOUTHEAST VIRGINIA

CITY           SKY/WX    TMP DP  RH WIND       PRES   REMARKS
NORFOLK        CLOUDY    42  30  62 NE7       30.31F
VIRGINIA BEACH PTSUNNY   44  29  55 N8        30.30F
NORFOLK NAVAL  PTSUNNY   44  31  60 NE9       30.32F
WEST POINT*    CLOUDY    45  25  45 NW5       30.34F
SALUDA*        CLOUDY    39  26  59 NW3       30.32F
NEWPORT NEWS   CLOUDY    45  29  53 NE7       30.31F
LANGLEY AFB    CLOUDY    42  31  65 NE7       30.32F
FORT EUSTIS    CLOUDY    44  27  51 VRB3      30.30F
WILLIAMSBURG*  CLOUDY    46  30  53 CALM      30.32F
HR EXEC AP*    CLOUDY    45  32  61 NE6       30.33F
FRANKLIN*      CLOUDY    45  28  53 N7        30.31F
WAKEFIELD      CLOUDY    44  27  51 VRB5      30.31F
$$

VAZ020-022-025-037-045-211900-
WEST CENTRAL AND SOUTHWEST VIRGINIA

CITY           SKY/WX    TMP DP  RH WIND       PRES   REMARKS
STAUNTON*      SUNNY     40  27  59 CALM      30.27F
WAYNESBORO*    CLEAR     40  28  61 CALM      30.24F
HOT SPRINGS VA MOSUNNY   36  26  65 CALM      30.12F
LYNCHBURG      SUNNY     43  31  62 CALM      30.26F
DANVILLE       CLOUDY    45  33  63 NE5       30.27F
SOUTH BOSTON*  CLOUDY    44  31  60 CALM      30.28F
MARTINSVILLE   CLOUDY    45  34  65 E5        30.27F
ROANOKE        PTSUNNY   44  29  55 CALM      30.25F
BLACKSBURG     CLOUDY    42  30  62 SE3       30.22F
DUBLIN*        CLOUDY    43  34  69 NE3       30.20F
MARION*        CLOUDY    43  34  69 NE6       30.18F
HILLSVILLE*    CLOUDY    40  34  78 SE3       30.17F
RICHLANDS*     PTCLDY    41  30  64 CALM      30.15F
WISE*          SUNNY     43  30  61 N3        30.15F
ABINGDON*      PTSUNNY   47  34  60 SW5       30.16F
$$

MDZ021>025-VAZ099-100-211900-
SOUTHERN MARYLAND AND THE DELMARVA PENINSULA

CITY           SKY/WX    TMP DP  RH WIND       PRES   REMARKS
PATUXENT RIVER MOSUNNY   41  28  60 NW3       30.32F
BAY BRIDGE APT   N/A     37  25  60 N3        30.33F
LEONARDTOWN    MOSUNNY   41  23  48 N5        30.33F
DOVER          SUNNY     40  25  55 NW8       30.29F
GEORGETOWN     MOSUNNY   41  23  48 W7        30.31F
EASTON         PTSUNNY   41  27  56 N7        30.36F
CAMBRIDGE      PTSUNNY   41  27  56 NW6       30.31F
SALISBURY      MOSUNNY   43  26  51 NW7       30.31F
OCEAN CITY     MOSUNNY   41  25  53 NW7       30.31F
WALLOPS ISLAND CLOUDY    41  27  57 VRB5      30.32F
ACCOMACK*      CLOUDY    39  25  56 NW6       30.32F
$$

NCZ012>017-030>032-211900-
NORTH CENTRAL AND EASTERN NORTH CAROLINA

CITY           SKY/WX    TMP DP  RH WIND       PRES   REMARKS
ROANOKE RAPIDS CLOUDY    45  30  57 NE7       30.29F
RALEIGH        PTSUNNY   46  35  65 CALM      30.27F
ELIZABETH CITY SUNNY     50  33  52 NE9       30.29F
AHOSKIE*       SUNNY     44  28  53 NE5       30.30F
EDENTON*       SUNNY     48  32  53 NE6       30.29F
CURRITUCK*     SUNNY     46  32  58 NE10      30.31F
KILL DEVIL HLS SUNNY     47  37  66 N9        30.27F
MANTEO         SUNNY     47  36  65 NE12      30.28F
CAPE HATTERAS  CLOUDY    47  40  76 NE12G18   30.26F
TARBORO*       NOT AVBL
GOLDSBORO      CLOUDY    45  40  82 NE7       30.25F
WASHINGTON     CLOUDY    45  32  60 NE8       30.27F
GREENVILLE     SUNNY     46  32  57 NE8       30.27F
NEW BERN       CLOUDY    48  35  60 NE8       30.27F
WILMINGTON     CLOUDY    48  36  63 N10       30.24F
$$

VAZ048-211900-
ELSEWHERE

CITY           SKY/WX    TMP DP  RH WIND       PRES   REMARKS
HARRISBURG PA  PTSUNNY   34  21  59 NE6       30.32F
BALTIMORE      MOSUNNY   37  22  54 NW5       30.31F
ANNAPOLIS      CLOUDY    38  24  57 NW7       30.32F
ANDREWS AFB    PTSUNNY   40  23  50 CALM      30.31F
PHILADELPHIA   MOSUNNY   39  22  50 NW9       30.31F
HENDERSON NC   CLOUDY    44  31  61 NE6       30.27F
GREENSBORO     CLOUDY    45  35  68 VRB3      30.23F
ROCKY MOUNT    SUNNY     48  33  56 N12       30.27F
$$

VAZ100-211900-
MARINE

STATION/POSITION TIME  TEMP    WIND        PRES    WAVE   SWELL
                       AIR SEA DIR/SP/G            HT/PER HT/PER
                 (UTC) (F)     (DEG/KT/KT) (MB)    (FT/S) (FT/S)
CAPE MAY NJ      1800   38 43  320/  8/ 10 1025.9F
LEWES DE         1800   36 42  330/  8/  9 1026.3F
15NM E FENWICK I 1800   38 45              1026.1F   2/11
OCEAN-CITY-INLET 1800   38 44   10/  8/ 10 1026.0F
WACHAPREAGUE VA  1800   41 40  290/  2/  4 1026.7F
THOMAS POINT MD  1800   37 41  300/  4/  5 1027.8F
GOOSES REEF MD   1800   38     VRB  4/  6  1026.0F   0
COVE POINT MD    1800   36      20/  6/  8 1026.8F
SOLOMONS ISLAND  1800      43                N/A
BISHOPS HEAD MD  1800   38 38  130/  1/  2 1026.4F
POTOMAC MD       1800   39 42   40/  2/  4 1026.0F   1
CAMBRIDGE MD     1800   37 40  280/  4/  6 1026.8F
LEWISETTA VA     1800   38 41     CALM     1026.6F
RAPPAHANNOCK LGT 1800          350/  6/  7 1027.3F
STINGRAY PT      1800   39 43   10/  6/  8 1027.2F   1
YORK RVR RNG VA  1800   40      50/  5/  7 1026.1F
YORKTOWN VA      1800   41 45   80/  2/  3 1026.5F
JAMESTOWN VA     1800   41 46   90/  4/  8   N/A     0
DOMINION TERM VA 1800   42      50/  4/  6 1026.4F
KIPTOPEKE VA     1800      48  350/  5/  6   N/A
CHES BAY BRIDGE  1800   39 46  360/ 11/ 12 1025.8F
CAPE HENRY VA    1800   39      10/ 12/ 13 1024.9F
CHESAPEAKE LGHT  1700   40      10/  9/ 11 1027.5F
WILLOUBY STN VA  1800   39      30/  9/ 10 1026.7F
S CRANEY ISL VA  1800           40/  9/ 11 1026.2F
CAPE HENRY BUOY  1700      49                N/A     2/11
1ST LANDING BUOY 1800   40 46   20/ 10/ 12 1025.8F   1/ 3
CAPE CHARLES BUO 1800      47                N/A     2/10   2/10
64NM E OF VA BCH 1800   45 54   20/ 14/ 16 1025.0F   2/ 4   2/10
DUCK PIER NC     1800   44 46   20/ 12/ 13 1025.0S
44100 DUCK FRF   1800      51                N/A     2/ 4
44056 DUCK FRF   1800      47                N/A     2/ 4
OREGON INLET NC  1800   47 47   10/  9/ 14 1025.2F
HATTERAS NC      1800   46 50   20/ 15/ 18 1024.7F
DIAMOND SHLS NC  1800   52                 1024.2F   3/ 4
CAPE LOOKOUT NC  1700   44      20/ 15/ 18 1024.5F
$$


USA.gov is the U.S. government's official web portal to all federal, state and local government web resources and services.